[[{"header":{"parameterUnit":"m.s-1","parameterCategory":1,"la1":30.2991,"la2":30.254,"lo1":-89.0895,"lo2":-89.0444,"dy":0.0017,"dx":0.0017,"nx":28,"ny":28,"refTime":"2025-02-05T03:00:00:Z","depth":0,"parameterNumber":2,"parameterNumberName":"U-component_of_WINDS"},"data":[0,0,0,0,0,0,0,0,0,0,0,0,0,0,0,0,0,0,0,0,0,0,0,0,0,0,0,0,0,0,0,0,0,0,0,0,0,0,0,0,0,0,0,0,0,0,0,0,0,0,0,0,0,0,0,0,0,0,-1.226,-1.226,0,-1.2252,-1.2252,-1.2252,-1.2237,-1.2236,-1.2236,-1.2236,-1.2227,-1.2227,-1.2227,0,0,0,0,0,0,0,0,0,0,0,0,0,-1.2261,-1.2261,-1.226,-1.226,-1.226,-1.2252,-1.2252,-1.2252,-1.2237,-1.2236,-1.2236,-1.2236,-1.2227,-1.2227,-1.2227,0,0,0,0,0,0,0,0,0,0,0,0,0,-1.2258,-1.2261,-1.226,-1.2251,-1.225,-1.2252,-1.2252,-1.2252,-1.2237,-1.2236,-1.2236,-1.2235,-1.2227,-1.2227,-1.2227,-1.2237,0,0,-1.2228,-1.2228,0,0,0,0,0,0,0,0,-1.2258,-1.2258,-1.2252,-1.2252,-1.2251,-1.2245,-1.225,-1.2247,-1.2237,-1.2242,-1.2236,-1.2235,-1.2233,-1.2233,-1.2233,-1.2237,-1.2236,-1.2228,-1.2228,-1.2228,-1.2228,0,0,0,0,0,0,0,-1.2258,-1.2258,-1.2257,-1.2252,-1.2251,-1.2248,-1.2247,-1.2249,-1.224,-1.2241,-1.224,-1.224,-1.2233,-1.2233,-1.2232,-1.2236,-1.2228,-1.2228,-1.2228,-1.2228,-1.2249,-1.2249,0,0,0,0,0,0,-1.226,-1.2258,-1.2257,-1.2257,-1.2253,-1.2248,-1.2247,-1.2247,-1.224,-1.2239,-1.224,-1.2239,-1.2233,-1.2232,-1.2232,-1.2243,-1.2228,-1.2228,-1.2228,-1.2248,-1.2249,-1.225,0,0,0,0,0,0,-1.226,-1.226,-1.2257,-1.2257,-1.2257,-1.2248,-1.2249,-1.2247,-1.2247,-1.2239,-1.2238,-1.2241,-1.2232,-1.2232,-1.2236,-1.2243,-1.2228,-1.2228,-1.2248,-1.2249,-1.2249,-1.2265,0,0,0,0,0,0,-1.226,-1.226,-1.2263,-1.2257,-1.2257,-1.2262,-1.2249,-1.2248,-1.2247,-1.2246,-1.224,-1.2239,-1.2232,-1.2236,-1.2236,-1.2242,-1.2228,-1.2247,-1.2248,-1.2249,-1.2264,-1.2267,-1.2269,0,0,0,0,0,-1.226,-1.2268,-1.2264,-1.2264,-1.2261,-1.2262,-1.2262,-1.2254,-1.2248,-1.2251,-1.2247,-1.2239,-1.2242,-1.2237,-1.2237,-1.2243,-1.2247,-1.2248,-1.2249,-1.2263,-1.2266,-1.2269,0,0,0,0,0,0,-1.2274,-1.2267,-1.2262,-1.2268,-1.2266,-1.226,-1.2264,-1.2257,-1.2257,-1.2255,-1.2246,-1.2244,-1.225,-1.2247,-1.2241,-1.2253,-1.2243,-1.2244,-1.2254,-1.2257,-1.2259,-1.2259,-1.2228,0,0,0,0,0,-1.2278,-1.228,-1.2273,-1.228,-1.2279,-1.2272,-1.2272,-1.2266,-1.2263,-1.2262,-1.2258,-1.2255,-1.2256,-1.2256,-1.2256,-1.2264,-1.2263,-1.2269,-1.2271,-1.2273,-1.2273,-1.2278,-1.228,-1.2253,-1.2253,-1.2253,0,0,-1.2286,-1.2282,-1.2284,-1.2282,-1.228,-1.2282,-1.2271,-1.2273,-1.2275,-1.2263,-1.2266,-1.2263,-1.226,-1.2266,-1.2269,-1.2264,-1.2281,-1.2274,-1.2276,-1.2275,-1.2279,-1.2282,-1.2284,-1.2254,-1.2254,-1.2254,0,0,-1.2302,-1.2299,-1.2304,-1.2302,-1.2299,-1.2294,-1.2296,-1.229,-1.2288,-1.2292,-1.2283,-1.2285,-1.2286,-1.2284,-1.2283,-1.23,-1.2292,-1.23,-1.2311,-1.2315,-1.2317,-1.2319,-1.2325,-1.2327,-1.2301,-1.2301,-1.2301,0,-1.2312,-1.2314,-1.2307,-1.231,-1.231,-1.23,-1.2305,-1.2304,-1.2301,-1.2301,-1.2296,-1.2297,-1.2294,-1.23,-1.2304,-1.2304,-1.2305,-1.23,-1.2318,-1.232,-1.2321,-1.2326,-1.2329,-1.2302,-1.2302,-1.2302,-1.2302,0,-1.2327,-1.2329,-1.2334,-1.2331,-1.2332,-1.2336,-1.2329,-1.2331,-1.2326,-1.2322,-1.2326,-1.2323,-1.2322,-1.2323,-1.2318,-1.2329,-1.2326,-1.232,-1.231,-1.2325,-1.233,-1.2331,-1.2303,-1.2303,-1.2303,-1.2303,0,0,-1.235,-1.2344,-1.2346,-1.2345,-1.2342,-1.2343,-1.2348,-1.2347,-1.2349,-1.2347,-1.235,-1.2352,-1.2347,-1.2346,-1.2341,-1.2345,-1.2358,-1.2338,-1.2338,-1.2341,-1.2369,-1.2374,-1.2376,-1.2354,-1.2354,-1.2354,-1.237,0,-1.2364,-1.237,-1.2364,-1.2372,-1.2374,-1.2366,-1.2369,-1.2368,-1.2365,-1.2366,-1.2362,-1.2364,-1.2356,-1.2356,-1.236,-1.2356,-1.2363,-1.2355,-1.2356,-1.2356,-1.2356,-1.2379,-1.2383,-1.2397,-1.2371,-1.2372,-1.2372,0,-1.2381,-1.2381,-1.2389,-1.2385,-1.2386,-1.2389,-1.2389,-1.2391,-1.2389,-1.2386,-1.2386,-1.238,-1.2384,-1.2376,-1.2381,-1.2376,-1.2376,-1.2375,-1.2375,-1.2374,-1.2364,-1.2378,-1.2402,-1.2404,-1.2375,-1.2375,-1.2374,0,-1.2396,-1.2398,-1.2403,-1.2403,-1.2399,-1.2402,-1.24,-1.2398,-1.2399,-1.2399,-1.2399,-1.24,-1.24,-1.24,-1.2395,-1.2389,-1.2401,-1.2392,-1.2399,-1.2399,-1.2401,-1.2401,-1.2425,-1.2403,-1.2403,-1.2403,-1.2403,0,-1.2412,-1.2417,-1.241,-1.2413,-1.2419,-1.2413,-1.2419,-1.2416,-1.2415,-1.2417,-1.241,-1.2413,-1.2406,-1.2408,-1.2404,-1.2409,-1.2409,-1.2407,-1.2406,-1.2407,-1.2407,-1.2407,-1.2405,-1.2403,-1.2403,-1.2403,-1.2403,0,-1.2429,-1.2425,-1.243,-1.2427,-1.2426,-1.243,-1.2427,-1.243,-1.2427,-1.2431,-1.2431,-1.2426,-1.2428,-1.2423,-1.2425,-1.2422,-1.2429,-1.2427,-1.243,-1.2429,-1.2436,-1.2435,-1.2459,-1.2462,-1.2439,-1.2439,-1.2439,0,-1.2439,-1.2443,-1.244,-1.2442,-1.2441,-1.2443,-1.2444,-1.2439,-1.244,-1.2439,-1.2442,-1.2443,-1.2444,-1.2448,-1.2445,-1.2446,-1.2443,-1.2451,-1.2443,-1.2444,-1.2442,-1.2442,-1.2442,-1.2453,-1.2453,-1.2453,-1.2453,0,-1.2457,-1.2455,-1.2457,-1.2458,-1.2459,-1.2459,-1.2459,-1.2461,-1.2455,-1.2457,-1.2459,-1.246,-1.2462,-1.2464,-1.2464,-1.2463,-1.2457,-1.2456,-1.2458,-1.2459,-1.246,-1.2459,-1.2434,-1.2455,-1.2455,-1.2455,-1.2455,-1.2455,-1.2471,-1.2474,-1.2473,-1.2475,-1.2475,-1.2475,-1.2478,-1.2475,-1.2477,-1.2478,-1.2475,-1.2478,-1.2477,-1.2478,-1.2477,-1.2479,-1.2475,-1.2478,-1.2478,-1.2479,-1.248,-1.2461,-1.248,-1.248,-1.2479,-1.2479,-1.2479,0,-1.2488,-1.2487,-1.249,-1.249,-1.2492,-1.2487,-1.2487,-1.2489,-1.2492,-1.2492,-1.2493,-1.2496,-1.2498,-1.2495,-1.2497,-1.2499,-1.2497,-1.25,-1.2499,-1.2499,-1.2483,-1.2481,-1.2502,-1.2502,-1.2502,-1.2502,-1.2502,-1.2502,-1.2498,-1.2503,-1.2501,-1.2506,-1.2505,-1.2508,-1.2508,-1.2509,-1.2509,-1.2512,-1.2514,-1.2513,-1.2511,-1.2513,-1.2515,-1.2514,-1.2515,-1.2518,-1.2517,-1.2502,-1.25,-1.2498,-1.2496,-1.2519,-1.2519,-1.2532,-1.2532,-1.2532]},{"header":{"parameterUnit":"m.s-1","parameterCategory":1,"la1":30.2991,"la2":30.254,"lo1":-89.0895,"lo2":-89.0444,"dy":0.0017,"dx":0.0017,"nx":28,"ny":28,"refTime":"2025-02-05T03:00:00:Z","depth":0,"parameterNumber":3,"parameterNumberName":"V-component_of_WINDS"},"data":[0,0,0,0,0,0,0,0,0,0,0,0,0,0,0,0,0,0,0,0,0,0,0,0,0,0,0,0,0,0,0,0,0,0,0,0,0,0,0,0,0,0,0,0,0,0,0,0,0,0,0,0,0,0,0,0,0,0,2.202,2.202,0,2.2026,2.2027,2.2027,2.2039,2.2039,2.2039,2.2039,2.2046,2.2046,2.2046,0,0,0,0,0,0,0,0,0,0,0,0,0,2.2017,2.2017,2.202,2.202,2.202,2.2026,2.2027,2.2027,2.2039,2.2039,2.2039,2.2039,2.2046,2.2046,2.2046,0,0,0,0,0,0,0,0,0,0,0,0,0,2.2021,2.2017,2.202,2.2027,2.2027,2.2026,2.2027,2.2027,2.2038,2.2039,2.2039,2.2039,2.2046,2.2046,2.2046,2.2038,0,0,2.2046,2.2045,0,0,0,0,0,0,0,0,2.2021,2.2021,2.2026,2.2026,2.2027,2.2032,2.2028,2.2031,2.2038,2.2034,2.2039,2.204,2.2041,2.2041,2.2042,2.2039,2.2039,2.2046,2.2045,2.2045,2.2045,0,0,0,0,0,0,0,2.202,2.2021,2.2022,2.2026,2.2027,2.2029,2.203,2.2029,2.2036,2.2035,2.2036,2.2036,2.2041,2.2042,2.2042,2.2039,2.2046,2.2045,2.2045,2.2045,2.2031,2.2031,0,0,0,0,0,0,2.2019,2.202,2.2022,2.2023,2.2025,2.2029,2.203,2.203,2.2036,2.2037,2.2036,2.2037,2.2042,2.2042,2.2042,2.2035,2.2045,2.2045,2.2045,2.2032,2.2031,2.2031,0,0,0,0,0,0,2.2019,2.2019,2.2022,2.2022,2.2022,2.2029,2.2029,2.203,2.2031,2.2037,2.2038,2.2035,2.2042,2.2042,2.204,2.2035,2.2045,2.2045,2.2032,2.2032,2.2031,2.202,0,0,0,0,0,0,2.2019,2.2019,2.2016,2.2022,2.2022,2.2019,2.2028,2.203,2.203,2.2032,2.2036,2.2037,2.2042,2.204,2.2039,2.2035,2.2045,2.2033,2.2032,2.2031,2.202,2.2019,2.2017,0,0,0,0,0,2.2019,2.2012,2.2016,2.2016,2.2019,2.2019,2.2019,2.2025,2.203,2.2027,2.2031,2.2037,2.2036,2.2039,2.2039,2.2035,2.2033,2.2032,2.2031,2.2021,2.2019,2.2017,0,0,0,0,0,0,2.2006,2.2013,2.2017,2.2013,2.2015,2.2021,2.2018,2.2023,2.2024,2.2025,2.2032,2.2033,2.203,2.2032,2.2036,2.2029,2.2035,2.2034,2.2027,2.2026,2.2024,2.2024,2.2045,0,0,0,0,0,2.2003,2.2002,2.2008,2.2004,2.2005,2.2011,2.2011,2.2016,2.2018,2.2019,2.2023,2.2025,2.2026,2.2026,2.2026,2.2021,2.2022,2.2018,2.2016,2.2015,2.2014,2.2013,2.2011,2.2029,2.2029,2.2029,0,0,2.1996,2.2,2.1999,2.2001,2.2004,2.2003,2.2012,2.201,2.201,2.2019,2.2017,2.202,2.2023,2.2019,2.2017,2.2021,2.201,2.2014,2.2013,2.2013,2.2012,2.201,2.2008,2.2028,2.2028,2.2028,0,0,2.1984,2.1986,2.1983,2.1985,2.1989,2.1993,2.1992,2.1997,2.2,2.1998,2.2005,2.2004,2.2004,2.2007,2.2008,2.1996,2.2002,2.1996,2.1989,2.1987,2.1985,2.1984,2.1981,2.1979,2.1996,2.1996,2.1995,0,2.1975,2.1974,2.198,2.1979,2.198,2.1988,2.1985,2.1987,2.1991,2.1991,2.1995,2.1996,2.1998,2.1996,2.1993,2.1993,2.1993,2.1996,2.1985,2.1984,2.1983,2.198,2.1978,2.1995,2.1995,2.1995,2.1995,0,2.1963,2.1962,2.1959,2.1963,2.1964,2.1961,2.1968,2.1967,2.1972,2.1976,2.1974,2.1978,2.1979,2.1979,2.1983,2.1977,2.1979,2.1984,2.199,2.198,2.1978,2.1976,2.1994,2.1994,2.1994,2.1995,0,0,2.1943,2.1951,2.1949,2.1951,2.1956,2.1956,2.1954,2.1956,2.1956,2.1958,2.1957,2.1957,2.1962,2.1963,2.1968,2.1966,2.1958,2.1971,2.1971,2.1969,2.1952,2.1949,2.1947,2.1961,2.1961,2.1961,2.1952,0,2.1932,2.1929,2.1936,2.1932,2.1931,2.194,2.1938,2.1941,2.1945,2.1945,2.1949,2.1949,2.1955,2.1956,2.1955,2.1959,2.1954,2.196,2.1961,2.1961,2.196,2.1946,2.1942,2.1934,2.1951,2.1951,2.195,0,2.1919,2.1921,2.1917,2.1923,2.1923,2.1921,2.1924,2.1924,2.1928,2.193,2.1932,2.1937,2.1936,2.1943,2.1941,2.1945,2.1946,2.1948,2.1948,2.1948,2.1955,2.1947,2.1931,2.193,2.1949,2.1949,2.1949,0,2.1905,2.1907,2.1905,2.1906,2.1913,2.1912,2.1914,2.1918,2.1919,2.1921,2.1922,2.1924,2.1925,2.1927,2.1933,2.1936,2.1931,2.1937,2.1934,2.1934,2.1933,2.1933,2.1917,2.1932,2.1932,2.1932,2.1932,0,2.1893,2.189,2.1899,2.1898,2.1896,2.1903,2.19,2.1904,2.1907,2.1907,2.1914,2.1914,2.1921,2.1922,2.1926,2.1925,2.1926,2.1928,2.193,2.1928,2.1928,2.1929,2.193,2.1932,2.1932,2.1932,2.1932,0,2.1878,2.1883,2.1882,2.1888,2.189,2.1888,2.1893,2.1893,2.1897,2.1897,2.1897,2.1904,2.1905,2.1911,2.1913,2.1916,2.1914,2.1916,2.1913,2.1914,2.191,2.1911,2.1895,2.1894,2.1909,2.1909,2.1909,0,2.187,2.1868,2.1874,2.1875,2.1877,2.1878,2.1879,2.1886,2.1887,2.1891,2.189,2.1892,2.1894,2.1895,2.19,2.1902,2.1905,2.19,2.1905,2.1904,2.1906,2.1906,2.1906,2.1899,2.1898,2.1898,2.1898,0,2.1855,2.1858,2.1859,2.1862,2.1863,2.1866,2.1868,2.1868,2.1876,2.1877,2.1878,2.188,2.1882,2.1884,2.1887,2.189,2.1896,2.1896,2.1896,2.1894,2.1893,2.1894,2.191,2.1897,2.1897,2.1897,2.1897,2.1897,2.1844,2.1843,2.1847,2.1849,2.1852,2.1854,2.1854,2.1858,2.186,2.1863,2.1867,2.1868,2.1872,2.1877,2.1879,2.188,2.1883,2.1882,2.1882,2.1882,2.1881,2.1892,2.1881,2.1881,2.1881,2.1881,2.1881,0,2.183,2.1833,2.1835,2.1838,2.184,2.1845,2.1848,2.1849,2.185,2.1853,2.1855,2.1857,2.1859,2.1864,2.1867,2.1867,2.1869,2.1867,2.1868,2.1868,2.1878,2.1879,2.1865,2.1865,2.1865,2.1865,2.1865,2.1865,2.1823,2.1822,2.1826,2.1827,2.183,2.1831,2.1833,2.1835,2.1838,2.184,2.1842,2.1845,2.185,2.1853,2.1855,2.1857,2.1858,2.1855,2.1857,2.1866,2.1868,2.1869,2.187,2.1855,2.1855,2.1848,2.1848,2.1848]}]]